ONEWEB-0198 (48216 NORAD) Tracking and Keplerian Element Data

This shows tracking and keplerian element data for the satellite.

Feedback or suggestion? Click here.




ElementValue
Catalog48216
NameONEWEB-0198
Epoch Orbit180
Epoch Day136.91668981
Epoch Year2021
RAAN305.7012
Inclination87.4191
Eccentricity0.0005906
Argument of Perigee176.1298
Mean Anonmoly237.8335
Mean Motion15.31617612
Decay Rate-0.01367552
L11 48216U 21031G 21136.91668981 -.01367552 00000-0 -49279-1 0 9992
L22 48216 87.4191 305.7012 0005906 176.1298 237.8335 15.31617612 1808

Live tracking and technical data element details for ONEWEB-0198 (NORAD 48216). ONEWEB-0198 can be tracked NOW for your location showing map with azimuth and elevation plus other details from your city location.

Track the satellite on the map from your city or location and see movement details for azimuth, elevation, latitude, longitude, range, height, and movement on the map or in text.







IsCatalogInMostPopularTable: catalog: 48216, numindb: 5
Update: records affected: 1



GetName: 48216 ONEWEB-0198

Hit Count: updated at: Mon, 17 May 2021 16:48:52 GMT